Вернуться в каталог

STARLINK-1168

АктивенСвязьVLEO
NORAD 45072·PAYLOAD·🇺🇸 United States

Запущен Jan 29, 2020 с Cape Canaveral Space Force Station

Loading…

Ближайшие Пролёты (ближайшие 24 часа)

TLE

СвежийSource: CelesTrak SupGP

Эпоха: Sep 15, 2026, 01:45 UTC

1 45072C 20006AE  26258.07340278  .00053587  00000+0  11641-2 0  2580
2 45072  53.1525  90.6606 0000521 145.7821 203.8945 15.43743255    15

Отслеживайте STARLINK-1168 в реальном времени с AllMySat

Download on the App Store